STARLINK-11736, 64317

Orbit data source: Space-Track

STARLINK-11736, 64317 is a payload satellite owned by SpaceX/Seattle (US) in LEO that was launched on Tue, 10 Jun 2025 UTC via an FALCON 9 launch vehicle from the Air Force Eastern Test Range (AFETR). Payload-class satellites include a variety of spacecraft equipped with specific instruments for various scientific and technological missions. These include communications satellites like Starlink; space stations such as the ISS; scientific satellites like the Hubble; Earth observation satellites from companies like Planet Labs, Umbra, and HawkEye 360; GPS; miniature CubeSats for education and research; and military/defense satellites.

Loading next visibility...
Identifier
64317, 2025-124A
Orbit
LEO
Country
Flag of USUS
Related business
Manufacturer
SpaceX/Seattle
Mission
Operational Commercial Communications
Bus & Motor
STARLINK V2MD, Unknown motor
Mass
960 kg wet, ~910 kg dry
Launch date (UTC)
2025-06-10 (10 months ago)
Launch vehicle
FALCON 9
Launch site
Air Force Eastern Test Range (AFETR)
Object type
Payload
Rocket body
Debris
Shape & HBR
Box + 2 Pan, 18.1 m
Radar Cross Section
36.964 m², Large (>1 m²)

Expand to show TLE details & history
Last TLE update: 6 hours ago

TLE from 6 hours ago
0 STARLINK-11736
1 64317U 25124A   26101.25002315  .00039560  00000-0  31067-3 0  9996
2 64317  43.0005 193.2479 0001652 266.6259  34.3683 15.70813343  5939
Epoch: 2026-04-11T06:00Z
TLE epoch observation values (Epoch: 2026-04-11T06:00:02.000Z)
Latitude
-35.94933°
Longitude
-146.88352°
Altitude
366.012 km
Speed
7.691 km/s
True Right ascension
09h 30m 23s
True Declination
-35° 46' 36"
Sunlit
Object was in full shadow at epoch
Visualization orbit readout
Latitude
Unknown
Longitude
Unknown
Altitude
Unknown
Speed
Unknown
Apparent Right ascension
Unknown
Apparent Declination
Unknown
Sunlit
N/A
Visualization observer readout
Local Sidereal Time
17:55:11
Azimuth
Unknown
Elevation
Unknown
Doppler factor
Unknown
Orbital elements
Apogee altitude
359.666 km
Perigee altitude
357.44 km
Semi-major axis
6,736.69 km
Eccentricity
0.00017
Inclination
43.0005°
RAAN
193.2479°
Arg. of periapsis
266.6259°
True anomaly
34.37899°
Mean anomaly
34.3683°
Eccentric anomaly
34.37364°
Mean motion
3.9253 °/min
Orbital period
91.71 mins
BSTAR
0.00031067
Loading maneuver chart data...
Computing Atmospheric mass density...
Loading historical data...
Loading historical data...
Loading historical data...
Loading historical data...
Loading historical data...
Loading historical data...
Loading historical data...

Documentation

Showing up to 5 results
|